Location: Te Maire Creek
(41.1333°S, 175.9167°E)
Time: 23:31:36
(UTC+00:00)

Cosmos 2333 Rocket - Pass Details

Date: 19 May 2024
Orbit: 838 x 863 km, 70.8° (Epoch: 22 June)

Event Time Altitude Azimuth Distance (km) Brightness Sun altitude
Rises 17:21:23 0° 358° (N) 3,433 5.4 -22.5°
Reaches altitude 10° 17:23:56 10° 5° (N) 2,504 4.8 -22.0°
Maximum altitude 17:29:20 42° 74° (ENE) 1,224 3.5 -21.0°
Drops below altitude 10° 17:34:46 10° 143° (SE) 2,528 5.0 -20.0°
Sets 17:37:21 0° 149° (SSE) 3,470 5.7 -19.5°
